AFR763 TFFR-LFPG

Flight info

Callsign AFR763
Flight time N/A
Altitude 33000
Route CAIRN2F CAIRN DCT CITRS/M085F330 DCT 20N055W 23N050W/M085F350 31N040W 36N030W 4030N02000W/M085F370 DCT BANAL/N0495F360 DCT PETEK DCT LOTEE DCT GATMO DCT NTS UN741 ANG/N0499F300 UN741 TEMTO DCT ROMGO
Aircraft B77W/H-SDE1E2E3FGHIJ2J3J4J5M1RWXY/LB1D1

Departure

Time 2026-05-08 22:29
Airport Maryse Condé International Airport (TFFR)

Arrival

Time N/A
Airport Charles de Gaulle International Airport (LFPG)
Time Latitude Longitude Altitude Speed Heading
2026-05-08 21:55 16.26910 -61.52737 26 ft 0 kts 41°
2026-05-08 22:19 16.26896 -61.52749 31 ft 3 kts 30°
2026-05-08 22:19 16.26878 -61.52757 31 ft 3 kts 10°
2026-05-08 22:19 16.26858 -61.52758 31 ft 3 kts 346°
2026-05-08 22:19 16.26840 -61.52751 31 ft 3 kts 321°
2026-05-08 22:20 16.26827 -61.52736 31 ft 3 kts 297°
2026-05-08 22:20 16.26821 -61.52723 31 ft 0 kts 281°
2026-05-08 22:23 16.26822 -61.52726 31 ft 2 kts 281°
2026-05-08 22:23 16.26831 -61.52774 29 ft 8 kts 281°
2026-05-08 22:23 16.26842 -61.52833 26 ft 8 kts 281°
2026-05-08 22:23 16.26842 -61.52896 26 ft 10 kts 252°
2026-05-08 22:24 16.26774 -61.52944 29 ft 14 kts 193°
2026-05-08 22:24 16.26665 -61.52964 28 ft 16 kts 190°
2026-05-08 22:24 16.26552 -61.52987 27 ft 17 kts 200°
2026-05-08 22:24 16.26510 -61.53087 28 ft 17 kts 282°
2026-05-08 22:25 16.26536 -61.53221 28 ft 24 kts 282°
2026-05-08 22:25 16.26576 -61.53431 28 ft 31 kts 281°
2026-05-08 22:25 16.26617 -61.53650 28 ft 34 kts 281°
2026-05-08 22:25 16.26668 -61.53921 27 ft 39 kts 281°
2026-05-08 22:26 16.26718 -61.54194 20 ft 38 kts 281°
2026-05-08 22:26 16.26768 -61.54461 18 ft 36 kts 281°
2026-05-08 22:26 16.26800 -61.54636 17 ft 13 kts 280°
2026-05-08 22:26 16.26839 -61.54715 18 ft 12 kts 315°
2026-05-08 22:27 16.26851 -61.54760 20 ft 6 kts 235°
2026-05-08 22:27 16.26820 -61.54751 19 ft 6 kts 111°
2026-05-08 22:27 16.26813 -61.54706 18 ft 6 kts 102°
2026-05-08 22:27 16.26809 -61.54689 17 ft 0 kts 102°
2026-05-08 22:28 16.26806 -61.54672 17 ft 19 kts 102°
2026-05-08 22:28 16.26730 -61.54270 19 ft 93 kts 101°
2026-05-08 22:28 16.26565 -61.53357 28 ft 158 kts 101°
2026-05-08 22:28 16.26347 -61.52096 215 ft 192 kts 100°
2026-05-08 22:29 16.26106 -61.50646 673 ft 207 kts 100°
2026-05-08 22:29 16.25844 -61.49240 1745 ft 186 kts 99°
2026-05-08 22:29 16.25600 -61.47939 2357 ft 188 kts 98°
2026-05-08 22:29 16.25337 -61.46517 2422 ft 213 kts 98°
2026-05-08 22:30 16.25076 -61.44964 2828 ft 222 kts 98°
2026-05-08 22:30 16.24792 -61.43348 3255 ft 231 kts 98°
2026-05-08 22:30 16.24689 -61.41683 3714 ft 238 kts 79°
2026-05-08 22:30 16.25426 -61.40101 3938 ft 251 kts 49°
2026-05-08 22:31 16.26682 -61.38883 4768 ft 244 kts 44°
2026-05-08 22:31 16.27962 -61.37695 5337 ft 249 kts 37°
2026-05-08 22:31 16.29236 -61.36477 5854 ft 251 kts 50°
2026-05-08 22:31 16.30368 -61.35073 6423 ft 258 kts 52°
2026-05-08 22:32 16.31499 -61.33595 6926 ft 264 kts 52°
2026-05-08 22:32 16.32657 -61.32077 7448 ft 271 kts 51°
2026-05-08 22:32 16.33843 -61.30539 8107 ft 273 kts 50°
2026-05-08 22:32 16.35049 -61.28997 8717 ft 276 kts 50°
2026-05-08 22:33 16.36280 -61.27441 9321 ft 280 kts 49°
2026-05-08 22:33 16.37531 -61.25877 9942 ft 282 kts 48°
2026-05-08 22:33 16.38809 -61.24291 10379 ft 292 kts 48°
2026-05-08 22:33 16.40172 -61.22613 10539 ft 314 kts 48°
2026-05-08 22:34 16.41630 -61.20823 10688 ft 335 kts 48°
2026-05-08 22:34 16.43185 -61.18919 10843 ft 355 kts 48°
2026-05-08 22:34 16.44821 -61.16919 11211 ft 368 kts 49°
2026-05-08 22:34 16.46502 -61.14865 11763 ft 376 kts 49°
2026-05-08 22:35 16.48208 -61.12782 12492 ft 379 kts 49°
2026-05-08 22:35 16.49909 -61.10705 13224 ft 384 kts 49°
2026-05-08 22:35 16.51658 -61.08570 13834 ft 391 kts 49°
2026-05-08 22:35 16.53429 -61.06408 14487 ft 393 kts 49°
2026-05-08 22:36 16.55207 -61.04237 15198 ft 394 kts 49°
2026-05-08 22:36 16.56989 -61.02059 15883 ft 396 kts 49°
2026-05-08 22:36 16.58785 -60.99866 16528 ft 399 kts 49°
2026-05-08 22:36 16.60594 -60.97655 17156 ft 402 kts 49°
2026-05-08 22:37 16.62413 -60.95432 17791 ft 405 kts 49°
2026-05-08 22:37 16.64246 -60.93190 18413 ft 407 kts 49°
2026-05-08 22:37 16.66088 -60.90937 18959 ft 409 kts 49°
2026-05-08 22:37 16.67937 -60.88675 19498 ft 411 kts 49°
2026-05-08 22:38 16.69798 -60.86397 20033 ft 414 kts 49°
2026-05-08 22:38 16.71668 -60.84108 20585 ft 416 kts 50°
2026-05-08 22:38 16.72913 -60.82584 20942 ft 417 kts 50°
2026-05-08 22:38 16.74800 -60.80272 21480 ft 420 kts 50°
2026-05-08 22:39 16.76696 -60.77948 22010 ft 422 kts 50°
2026-05-08 22:39 16.78604 -60.75608 22529 ft 424 kts 50°
2026-05-08 22:39 16.80525 -60.73253 23067 ft 427 kts 50°
2026-05-08 22:39 16.82452 -60.70889 23583 ft 429 kts 50°
2026-05-08 22:40 16.84390 -60.68511 23955 ft 432 kts 50°
2026-05-08 22:40 16.86344 -60.66111 24329 ft 436 kts 50°
2026-05-08 22:40 16.88315 -60.63691 24729 ft 438 kts 50°
2026-05-08 22:40 16.90292 -60.61262 25142 ft 440 kts 49°
2026-05-08 22:41 16.92277 -60.58823 25541 ft 442 kts 49°
2026-05-08 22:41 16.94211 -60.56307 25927 ft 445 kts 52°
2026-05-08 22:41 16.96044 -60.53692 26286 ft 448 kts 53°
2026-05-08 22:41 16.97843 -60.51022 26675 ft 451 kts 54°
2026-05-08 22:42 16.99640 -60.48324 27052 ft 453 kts 54°
2026-05-08 22:42 17.01448 -60.45617 27413 ft 456 kts 54°
2026-05-08 22:42 17.03273 -60.42906 27834 ft 457 kts 53°
2026-05-08 22:42 17.05114 -60.40189 28201 ft 459 kts 53°
2026-05-08 22:43 17.06972 -60.37461 28532 ft 462 kts 53°
2026-05-08 22:43 17.08844 -60.34719 28751 ft 467 kts 52°
2026-05-08 22:43 17.10742 -60.31943 28990 ft 471 kts 52°
2026-05-08 22:43 17.12647 -60.29156 29309 ft 472 kts 52°
2026-05-08 22:44 17.14558 -60.26360 29659 ft 473 kts 52°
2026-05-08 22:44 17.16473 -60.23554 29958 ft 475 kts 52°
2026-05-08 22:44 17.18395 -60.20738 30240 ft 476 kts 52°
2026-05-08 22:44 17.20316 -60.17920 30590 ft 474 kts 52°
2026-05-08 22:45 17.22223 -60.15122 31073 ft 470 kts 52°
2026-05-08 22:45 17.24114 -60.12344 31516 ft 467 kts 52°
2026-05-08 22:45 17.25970 -60.09618 31866 ft 465 kts 52°
2026-05-08 22:45 17.27847 -60.06861 32194 ft 465 kts 52°
2026-05-08 22:46 17.29721 -60.04107 32519 ft 464 kts 52°
2026-05-08 22:46 17.31590 -60.01359 32861 ft 462 kts 52°
2026-05-08 22:46 17.33462 -59.98606 32952 ft 467 kts 52°
2026-05-08 22:47 17.37235 -59.93057 33012 ft 467 kts 52°
2026-05-08 22:47 17.40971 -59.87552 33023 ft 462 kts 52°
2026-05-08 22:48 17.44684 -59.82079 33018 ft 460 kts 52°
2026-05-08 22:48 17.48384 -59.76620 33020 ft 459 kts 52°
2026-05-08 22:49 17.52084 -59.71158 33020 ft 460 kts 52°
2026-05-08 22:49 17.57648 -59.62935 33014 ft 462 kts 52°
2026-05-08 22:50 17.61372 -59.57427 33033 ft 464 kts 52°
2026-05-08 22:50 17.65107 -59.51896 33025 ft 465 kts 52°
2026-05-08 22:51 17.68842 -59.46360 33027 ft 465 kts 52°
2026-05-08 22:51 17.72577 -59.40820 33026 ft 465 kts 52°
2026-05-08 22:52 17.76310 -59.35280 33024 ft 465 kts 52°
2026-05-08 22:52 17.80009 -59.29784 33026 ft 464 kts 52°
2026-05-08 22:53 17.83730 -59.24251 33030 ft 464 kts 52°
2026-05-08 22:53 17.87445 -59.18723 33026 ft 463 kts 52°
2026-05-08 22:54 17.91157 -59.13194 33030 ft 463 kts 52°
2026-05-08 22:54 17.94867 -59.07662 33030 ft 463 kts 52°
2026-05-08 22:55 17.98575 -59.02131 33022 ft 463 kts 53°
2026-05-08 22:55 18.01949 -58.96366 33032 ft 464 kts 59°
2026-05-08 22:56 18.04998 -58.90385 33023 ft 464 kts 59°
2026-05-08 22:56 18.08058 -58.84403 33037 ft 465 kts 59°
2026-05-08 22:57 18.11132 -58.78421 33037 ft 465 kts 59°
2026-05-08 22:57 18.14215 -58.72431 33035 ft 466 kts 59°
2026-05-08 22:58 18.17299 -58.66433 33036 ft 466 kts 59°
2026-05-08 22:58 18.20383 -58.60430 33034 ft 466 kts 59°
2026-05-08 22:59 18.23466 -58.54422 33036 ft 466 kts 59°
2026-05-08 22:59 18.26545 -58.48416 33030 ft 467 kts 59°
2026-05-08 23:00 18.29631 -58.42393 33046 ft 467 kts 59°
2026-05-08 23:00 18.32712 -58.36369 33040 ft 468 kts 59°
2026-05-08 23:01 18.35792 -58.30343 33040 ft 468 kts 59°
2026-05-08 23:01 18.38870 -58.24315 33040 ft 467 kts 59°
2026-05-08 23:02 18.41947 -58.18284 33047 ft 467 kts 59°
2026-05-08 23:02 18.45016 -58.12263 33039 ft 467 kts 59°
2026-05-08 23:03 18.48079 -58.06246 33039 ft 466 kts 59°
2026-05-08 23:03 18.51138 -58.00232 33044 ft 465 kts 59°
2026-05-08 23:04 18.54173 -57.94261 33046 ft 465 kts 59°
2026-05-08 23:04 18.57223 -57.88253 33050 ft 465 kts 59°
2026-05-08 23:05 18.60272 -57.82241 33045 ft 465 kts 59°
2026-05-08 23:05 18.63317 -57.76232 33046 ft 465 kts 59°
2026-05-08 23:06 18.66359 -57.70221 33046 ft 464 kts 59°
2026-05-08 23:06 18.69400 -57.64209 33049 ft 465 kts 59°
2026-05-08 23:07 18.72446 -57.58179 33044 ft 466 kts 59°
2026-05-08 23:07 18.75494 -57.52140 33044 ft 467 kts 59°
2026-05-08 23:08 18.78544 -57.46090 33048 ft 467 kts 59°
2026-05-08 23:08 18.81594 -57.40034 33047 ft 467 kts 59°
2026-05-08 23:09 18.84643 -57.33974 33051 ft 468 kts 59°
2026-05-08 23:09 18.87693 -57.27906 33048 ft 467 kts 59°
2026-05-08 23:10 18.90740 -57.21838 33047 ft 468 kts 59°
2026-05-08 23:10 18.93788 -57.15764 33054 ft 468 kts 59°
2026-05-08 23:11 18.96836 -57.09681 33060 ft 469 kts 59°
2026-05-08 23:11 18.99864 -57.03633 33053 ft 469 kts 59°
2026-05-08 23:12 19.02911 -56.97540 33050 ft 469 kts 59°
2026-05-08 23:12 19.05951 -56.91455 33052 ft 469 kts 59°
2026-05-08 23:13 19.08993 -56.85359 33051 ft 468 kts 59°
2026-05-08 23:13 19.12033 -56.79262 33056 ft 469 kts 59°
2026-05-08 23:14 19.15074 -56.73158 33054 ft 469 kts 59°
2026-05-08 23:14 19.18115 -56.67046 33057 ft 470 kts 59°
2026-05-08 23:15 19.21157 -56.60925 33057 ft 470 kts 59°
2026-05-08 23:15 19.24194 -56.54808 33058 ft 470 kts 59°
2026-05-08 23:16 19.27216 -56.48716 33060 ft 470 kts 60°
2026-05-08 23:16 19.30253 -56.42587 33057 ft 471 kts 59°
2026-05-08 23:17 19.33299 -56.36434 33062 ft 471 kts 59°
2026-05-08 23:17 19.36345 -56.30273 33064 ft 472 kts 60°
2026-05-08 23:18 19.39392 -56.24103 33062 ft 472 kts 60°
2026-05-08 23:18 19.42424 -56.17958 33063 ft 472 kts 60°
2026-05-08 23:19 19.45467 -56.11785 33063 ft 472 kts 60°
2026-05-08 23:19 19.48505 -56.05615 33063 ft 472 kts 60°
2026-05-08 23:20 19.51546 -55.99431 33062 ft 473 kts 60°
2026-05-08 23:20 19.54572 -55.93274 33067 ft 474 kts 60°
2026-05-08 23:21 19.57617 -55.87069 33069 ft 474 kts 60°
2026-05-08 23:21 19.60667 -55.80848 33068 ft 475 kts 60°
2026-05-08 23:22 19.63715 -55.74624 33071 ft 475 kts 60°
2026-05-08 23:22 19.66762 -55.68396 33066 ft 475 kts 60°
2026-05-08 23:23 19.69778 -55.62221 33051 ft 475 kts 60°
2026-05-08 23:23 19.72818 -55.55995 33075 ft 476 kts 60°
2026-05-08 23:24 19.75866 -55.49746 33081 ft 477 kts 60°
2026-05-08 23:24 19.78916 -55.43484 33065 ft 477 kts 60°
2026-05-08 23:25 19.81961 -55.37223 33072 ft 477 kts 60°
2026-05-08 23:25 19.84489 -55.32023 33070 ft 476 kts 60°
2026-05-08 23:26 19.87529 -55.25762 33071 ft 476 kts 60°
2026-05-08 23:26 19.91054 -55.18492 33078 ft 476 kts 60°
2026-05-08 23:27 19.93602 -55.13233 33073 ft 477 kts 60°
2026-05-08 23:27 19.96628 -55.06980 33074 ft 478 kts 60°
2026-05-08 23:28 19.99676 -55.00694 33072 ft 478 kts 59°
2026-05-08 23:28 20.03217 -54.94732 33071 ft 475 kts 54°
2026-05-08 23:29 20.06918 -54.88902 33076 ft 475 kts 54°
2026-05-08 23:29 20.10591 -54.83084 33071 ft 476 kts 53°
2026-05-08 23:30 20.14278 -54.77201 33085 ft 477 kts 54°
2026-05-08 23:30 20.17959 -54.71302 33083 ft 478 kts 54°
2026-05-08 23:31 20.21615 -54.65437 33077 ft 478 kts 54°
2026-05-08 23:31 20.25293 -54.59533 33079 ft 478 kts 54°
2026-05-08 23:32 20.28971 -54.53621 33074 ft 478 kts 54°
2026-05-08 23:32 20.32651 -54.47704 33088 ft 479 kts 54°
2026-05-08 23:33 20.36312 -54.41812 33082 ft 479 kts 54°
2026-05-08 23:33 20.39995 -54.35877 33084 ft 479 kts 54°
2026-05-08 23:34 20.43676 -54.29937 33083 ft 480 kts 54°
2026-05-08 23:34 20.47329 -54.24039 33085 ft 479 kts 54°
2026-05-08 23:35 20.51003 -54.18099 33083 ft 479 kts 54°
2026-05-08 23:35 20.54666 -54.12172 33083 ft 478 kts 54°
2026-05-08 23:36 20.58323 -54.06247 33083 ft 478 kts 54°
2026-05-08 23:36 20.61976 -54.00325 33084 ft 477 kts 54°
2026-05-08 23:37 20.65628 -53.94398 33088 ft 477 kts 54°
2026-05-08 23:37 20.69258 -53.88499 33084 ft 478 kts 54°
2026-05-08 23:38 20.72914 -53.82552 33086 ft 479 kts 54°
2026-05-08 23:38 20.76573 -53.76596 33091 ft 480 kts 54°
2026-05-08 23:39 20.80238 -53.70622 33090 ft 480 kts 54°
2026-05-08 23:39 20.83897 -53.64650 33086 ft 480 kts 54°
2026-05-08 23:40 20.87559 -53.58669 33091 ft 481 kts 54°
2026-05-08 23:40 20.91206 -53.52707 33095 ft 482 kts 54°
2026-05-08 23:41 20.94878 -53.46697 33093 ft 483 kts 54°
2026-05-08 23:41 20.98556 -53.40671 33094 ft 483 kts 54°
2026-05-08 23:42 21.02210 -53.34677 33095 ft 484 kts 54°
2026-05-08 23:42 21.05883 -53.28645 33097 ft 484 kts 54°
2026-05-08 23:43 21.09568 -53.22587 33097 ft 484 kts 54°
2026-05-08 23:43 21.13247 -53.16533 33095 ft 485 kts 54°
2026-05-08 23:44 21.16905 -53.10508 33096 ft 485 kts 54°
2026-05-08 23:44 21.20585 -53.04438 33096 ft 485 kts 54°
2026-05-08 23:45 21.24257 -52.98375 33107 ft 484 kts 54°
2026-05-08 23:45 21.27925 -52.92312 33098 ft 485 kts 54°
2026-05-08 23:46 21.31573 -52.86277 33098 ft 485 kts 54°
2026-05-08 23:46 21.35243 -52.80199 33103 ft 485 kts 54°
2026-05-08 23:47 21.38908 -52.74121 33088 ft 485 kts 54°
2026-05-08 23:47 21.42579 -52.68028 33114 ft 485 kts 54°
2026-05-08 23:48 21.46246 -52.61932 33112 ft 486 kts 54°
2026-05-08 23:48 21.49893 -52.55866 33099 ft 486 kts 54°
2026-05-08 23:49 21.53560 -52.49759 33097 ft 486 kts 54°
2026-05-08 23:49 21.57229 -52.43641 33100 ft 486 kts 54°
2026-05-08 23:50 21.60891 -52.37527 33106 ft 486 kts 54°
2026-05-08 23:50 21.64531 -52.31445 33106 ft 486 kts 54°
2026-05-08 23:51 21.68131 -52.25423 33106 ft 486 kts 54°
2026-05-08 23:51 21.72855 -52.17511 33107 ft 486 kts 54°
2026-05-08 23:52 21.80154 -52.05260 33114 ft 487 kts 53°
2026-05-08 23:52 21.83710 -51.99283 33658 ft 486 kts 54°
2026-05-08 23:52 21.85531 -51.96217 34062 ft 483 kts 54°
2026-05-08 23:53 21.87338 -51.93175 34408 ft 481 kts 54°
2026-05-08 23:53 21.89135 -51.90147 34675 ft 480 kts 54°
2026-05-08 23:53 21.90934 -51.87117 34895 ft 480 kts 54°
2026-05-08 23:53 21.92735 -51.84082 35029 ft 482 kts 54°
2026-05-08 23:54 22.00003 -51.71813 35170 ft 488 kts 54°
2026-05-08 23:55 22.09270 -51.56114 35099 ft 473 kts 54°
2026-05-08 23:55 22.16332 -51.44135 35123 ft 476 kts 53°
2026-05-08 23:56 22.23515 -51.31920 35161 ft 486 kts 54°
2026-05-08 23:56 22.30773 -51.19538 35114 ft 487 kts 54°
2026-05-08 23:57 22.37928 -51.07304 35120 ft 477 kts 54°
2026-05-08 23:57 22.44984 -50.95220 35117 ft 473 kts 54°
2026-05-08 23:58 22.52053 -50.83089 35137 ft 482 kts 53°
2026-05-08 23:58 22.59247 -50.70709 35139 ft 489 kts 53°
2026-05-08 23:59 22.66457 -50.58263 35134 ft 485 kts 53°
2026-05-08 23:59 22.73545 -50.46004 35091 ft 477 kts 53°
2026-05-09 00:00 22.80550 -50.33869 35143 ft 476 kts 53°
2026-05-09 00:00 22.87234 -50.22260 35166 ft 484 kts 53°
2026-05-09 00:01 22.93971 -50.10525 35170 ft 489 kts 53°
2026-05-09 00:01 23.00766 -49.99198 35170 ft 480 kts 46°
2026-05-09 00:01 23.05248 -49.93987 35174 ft 468 kts 40°
2026-05-09 00:02 23.08454 -49.90445 35229 ft 466 kts 40°
2026-05-09 00:02 23.14633 -49.83578 35142 ft 477 kts 40°
2026-05-09 00:03 23.23444 -49.73665 35159 ft 479 kts 40°
2026-05-09 00:03 23.32585 -49.63341 35123 ft 473 kts 40°
2026-05-09 00:04 23.41693 -49.53045 35138 ft 466 kts 40°
2026-05-09 00:04 23.50613 -49.42945 35157 ft 468 kts 40°
2026-05-09 00:05 23.59719 -49.32614 35132 ft 477 kts 40°
2026-05-09 00:05 23.68930 -49.22132 35168 ft 480 kts 40°
2026-05-09 00:06 23.75776 -49.14320 35095 ft 473 kts 40°
2026-05-09 00:06 23.78006 -49.11764 35590 ft 458 kts 40°
2026-05-09 00:06 23.80235 -49.09219 35324 ft 467 kts 40°
2026-05-09 00:07 23.84770 -49.04053 35248 ft 473 kts 40°
2026-05-09 00:07 23.89312 -48.98861 35202 ft 472 kts 40°
2026-05-09 00:08 23.93833 -48.93680 35159 ft 470 kts 40°
2026-05-09 00:08 23.98329 -48.88524 35147 ft 467 kts 39°
2026-05-09 00:09 24.02806 -48.83386 35148 ft 466 kts 39°
2026-05-09 00:09 24.07271 -48.78258 35149 ft 465 kts 40°
2026-05-09 00:10 24.11732 -48.73129 35153 ft 466 kts 40°
2026-05-09 00:10 24.16204 -48.67982 35152 ft 467 kts 40°
2026-05-09 00:11 24.20686 -48.62817 35161 ft 469 kts 40°
2026-05-09 00:11 24.25187 -48.57625 35165 ft 471 kts 39°
2026-05-09 00:12 24.29701 -48.52411 35160 ft 472 kts 39°
2026-05-09 00:12 24.34222 -48.47182 35154 ft 472 kts 39°
2026-05-09 00:13 24.38712 -48.41983 35164 ft 473 kts 39°
2026-05-09 00:13 24.43237 -48.36739 35167 ft 474 kts 39°
2026-05-09 00:14 24.47766 -48.31485 35146 ft 474 kts 39°
2026-05-09 00:14 24.52294 -48.26225 35151 ft 474 kts 39°
2026-05-09 00:15 24.56815 -48.20967 35150 ft 474 kts 39°
2026-05-09 00:15 24.60578 -48.16587 35168 ft 474 kts 39°
2026-05-09 00:16 24.65092 -48.11326 35162 ft 473 kts 39°
2026-05-09 00:16 24.69603 -48.06064 35159 ft 472 kts 39°
2026-05-09 00:17 24.74105 -48.00806 35195 ft 472 kts 39°
2026-05-09 00:17 24.78605 -47.95546 35165 ft 472 kts 39°
2026-05-09 00:18 24.83101 -47.90283 35159 ft 472 kts 39°
2026-05-09 00:18 24.87595 -47.85016 35164 ft 471 kts 39°
2026-05-09 00:19 24.92083 -47.79752 35200 ft 471 kts 39°
2026-05-09 00:19 24.96577 -47.74475 35173 ft 472 kts 39°
2026-05-09 00:20 25.01073 -47.69188 35170 ft 473 kts 39°
2026-05-09 00:20 25.05569 -47.63895 35166 ft 473 kts 39°
2026-05-09 00:21 25.10068 -47.58593 35190 ft 474 kts 40°
2026-05-09 00:21 25.14582 -47.53269 35179 ft 476 kts 40°
2026-05-09 00:22 25.19110 -47.47920 35176 ft 478 kts 40°
2026-05-09 00:22 25.23622 -47.42583 35189 ft 479 kts 40°
2026-05-09 00:23 25.28174 -47.37194 35171 ft 480 kts 41°
2026-05-09 00:23 25.32737 -47.31785 35173 ft 482 kts 41°
2026-05-09 00:24 25.37320 -47.26346 35179 ft 484 kts 41°
2026-05-09 00:24 25.41913 -47.20887 35188 ft 486 kts 42°
2026-05-09 00:25 25.46518 -47.15408 35173 ft 487 kts 43°
2026-05-09 00:25 25.51141 -47.09902 35177 ft 489 kts 43°
2026-05-09 00:26 25.55772 -47.04379 35193 ft 490 kts 44°
2026-05-09 00:26 25.60409 -46.98841 35179 ft 490 kts 43°
2026-05-09 00:27 25.65041 -46.93303 35172 ft 490 kts 44°
2026-05-09 00:27 25.69669 -46.87761 35183 ft 490 kts 44°
2026-05-09 00:28 25.74296 -46.82216 35182 ft 490 kts 44°
2026-05-09 00:28 25.78919 -46.76669 35185 ft 490 kts 44°
2026-05-09 00:29 25.83511 -46.71152 35188 ft 489 kts 44°
2026-05-09 00:29 25.88130 -46.65596 35201 ft 489 kts 44°
2026-05-09 00:30 25.92744 -46.60039 35189 ft 489 kts 44°
2026-05-09 00:30 25.97358 -46.54475 35183 ft 490 kts 45°
2026-05-09 00:31 26.01975 -46.48900 35196 ft 491 kts 45°
2026-05-09 00:31 26.06607 -46.43301 35201 ft 492 kts 45°
2026-05-09 00:32 26.11248 -46.37684 35198 ft 493 kts 45°
2026-05-09 00:32 26.15898 -46.32049 35191 ft 495 kts 45°
2026-05-09 00:33 26.20566 -46.26384 35209 ft 497 kts 45°
2026-05-09 00:33 26.25246 -46.20697 35204 ft 498 kts 45°
2026-05-09 00:34 26.29931 -46.14997 35179 ft 499 kts 45°
2026-05-09 00:34 26.34627 -46.09276 35212 ft 501 kts 46°
2026-05-09 00:35 26.39330 -46.03539 35190 ft 502 kts 46°
2026-05-09 00:35 26.44044 -45.97781 35187 ft 502 kts 46°
2026-05-09 00:36 26.48756 -45.92018 35212 ft 503 kts 46°
2026-05-09 00:36 26.53472 -45.86243 35194 ft 504 kts 46°
2026-05-09 00:37 26.58192 -45.80455 35199 ft 504 kts 46°
2026-05-09 00:37 26.62908 -45.74664 35201 ft 504 kts 46°
2026-05-09 00:38 26.67604 -45.68892 35206 ft 505 kts 46°
2026-05-09 00:38 26.72327 -45.63076 35206 ft 505 kts 46°
2026-05-09 00:39 26.77080 -45.57218 35199 ft 506 kts 46°
2026-05-09 00:39 26.81782 -45.51414 35212 ft 506 kts 46°
2026-05-09 00:40 26.86515 -45.45563 35206 ft 506 kts 46°
2026-05-09 00:40 26.91251 -45.39702 35206 ft 506 kts 47°
2026-05-09 00:41 26.98337 -45.30916 35213 ft 506 kts 47°
2026-05-09 00:41 27.03059 -45.25052 35213 ft 506 kts 47°
2026-05-09 00:42 27.07745 -45.19225 35220 ft 505 kts 47°
2026-05-09 00:42 27.12463 -45.13350 35210 ft 505 kts 47°
2026-05-09 00:43 27.17165 -45.07486 35225 ft 505 kts 47°
2026-05-09 00:43 27.21868 -45.01614 35217 ft 505 kts 47°
2026-05-09 00:44 27.26546 -44.95765 35219 ft 506 kts 47°
2026-05-09 00:44 27.31258 -44.89866 35218 ft 506 kts 47°
2026-05-09 00:45 27.35941 -44.83994 35227 ft 506 kts 47°
2026-05-09 00:45 27.40641 -44.78094 35225 ft 506 kts 48°
2026-05-09 00:46 27.45341 -44.72185 35226 ft 506 kts 48°
2026-05-09 00:46 27.50006 -44.66310 35225 ft 506 kts 48°
2026-05-09 00:47 27.54702 -44.60391 35223 ft 506 kts 48°
2026-05-09 00:47 27.59393 -44.54469 35231 ft 506 kts 49°
2026-05-09 00:48 27.64079 -44.48545 35226 ft 506 kts 49°
2026-05-09 00:48 27.68684 -44.42714 35231 ft 505 kts 49°
2026-05-09 00:49 27.73357 -44.36791 35225 ft 505 kts 49°
2026-05-09 00:49 27.78020 -44.30870 35237 ft 504 kts 49°
2026-05-09 00:50 27.82678 -44.24949 35231 ft 504 kts 49°
2026-05-09 00:50 27.87334 -44.19022 35227 ft 504 kts 49°
2026-05-09 00:51 27.91955 -44.13131 35230 ft 504 kts 49°
2026-05-09 00:51 27.96605 -44.07195 35249 ft 504 kts 49°
2026-05-09 00:52 28.01254 -44.01251 35223 ft 505 kts 49°
2026-05-09 00:52 28.05904 -43.95298 35249 ft 505 kts 49°
2026-05-09 00:53 28.10586 -43.89296 35246 ft 505 kts 49°
2026-05-09 00:53 28.15234 -43.83328 35229 ft 505 kts 49°
2026-05-09 00:54 28.19881 -43.77354 35244 ft 505 kts 49°
2026-05-09 00:54 28.24525 -43.71373 35248 ft 505 kts 49°
2026-05-09 00:55 28.29166 -43.65390 35234 ft 505 kts 49°
2026-05-09 00:55 28.33807 -43.59397 35240 ft 506 kts 50°
2026-05-09 00:56 28.38421 -43.53430 35247 ft 506 kts 50°
2026-05-09 00:56 28.43067 -43.47414 35248 ft 507 kts 50°
2026-05-09 00:57 28.47717 -43.41384 35241 ft 508 kts 50°
2026-05-09 00:57 28.52369 -43.35342 35251 ft 508 kts 50°
2026-05-09 00:58 28.57017 -43.29297 35251 ft 508 kts 50°
2026-05-09 00:58 28.61665 -43.23242 35251 ft 508 kts 50°
2026-05-09 00:59 28.66305 -43.17191 35253 ft 507 kts 50°
2026-05-09 00:59 28.70941 -43.11134 35253 ft 507 kts 50°
2026-05-09 01:00 28.75572 -43.05074 35254 ft 507 kts 50°
2026-05-09 01:00 28.80198 -42.99014 35249 ft 507 kts 50°
2026-05-09 01:01 28.84042 -42.93971 35261 ft 507 kts 50°
2026-05-09 01:01 28.89413 -42.86914 35258 ft 507 kts 50°
2026-05-09 01:02 28.94037 -42.80829 35257 ft 507 kts 50°
2026-05-09 01:02 28.97904 -42.75733 35259 ft 507 kts 50°
2026-05-09 01:03 29.02520 -42.69641 35264 ft 507 kts 50°
2026-05-09 01:03 29.07102 -42.63587 35263 ft 506 kts 50°
2026-05-09 01:04 29.11705 -42.57493 35258 ft 507 kts 50°
2026-05-09 01:04 29.16313 -42.51386 35269 ft 507 kts 50°
2026-05-09 01:05 29.20920 -42.45270 35274 ft 508 kts 50°
2026-05-09 01:06 29.27838 -42.36070 35271 ft 509 kts 50°
2026-05-09 01:06 29.32454 -42.29918 35279 ft 509 kts 50°
2026-05-09 01:07 29.37075 -42.23752 35279 ft 510 kts 50°
2026-05-09 01:07 29.41693 -42.17580 35264 ft 510 kts 50°
2026-05-09 01:08 29.46314 -42.11394 35282 ft 510 kts 50°
2026-05-09 01:08 29.50902 -42.05243 35280 ft 511 kts 50°
2026-05-09 01:09 29.55522 -41.99040 35285 ft 511 kts 50°
2026-05-09 01:09 29.60141 -41.92829 35283 ft 511 kts 50°
2026-05-09 01:10 29.64760 -41.86608 35284 ft 511 kts 50°
2026-05-09 01:10 29.69373 -41.80386 35287 ft 512 kts 50°
2026-05-09 01:11 29.73989 -41.74149 35282 ft 512 kts 50°
2026-05-09 01:11 29.78604 -41.67904 35293 ft 512 kts 50°
2026-05-09 01:12 29.83221 -41.61647 35298 ft 513 kts 50°
2026-05-09 01:12 29.87836 -41.55383 35285 ft 513 kts 50°
2026-05-09 01:13 29.92451 -41.49109 35291 ft 513 kts 50°
2026-05-09 01:13 29.97061 -41.42831 35300 ft 513 kts 50°
2026-05-09 01:14 30.01669 -41.36547 35297 ft 513 kts 50°
2026-05-09 01:14 30.06273 -41.30258 35295 ft 513 kts 50°
2026-05-09 01:15 30.10875 -41.23962 35304 ft 513 kts 50°
2026-05-09 01:15 30.15477 -41.17657 35301 ft 514 kts 50°
2026-05-09 01:16 30.20080 -41.11340 35302 ft 514 kts 50°
2026-05-09 01:16 30.24681 -41.05014 35302 ft 514 kts 50°
2026-05-09 01:17 30.31575 -40.95519 35300 ft 513 kts 50°
2026-05-09 01:17 30.36160 -40.89191 35297 ft 513 kts 50°
2026-05-09 01:18 30.40741 -40.82859 35304 ft 512 kts 50°
2026-05-09 01:18 30.45314 -40.76526 35304 ft 512 kts 50°
2026-05-09 01:19 30.49882 -40.70192 35307 ft 512 kts 50°
2026-05-09 01:19 30.54445 -40.63854 35306 ft 512 kts 50°
2026-05-09 01:20 30.59009 -40.57504 35307 ft 512 kts 50°
2026-05-09 01:20 30.63569 -40.51148 35313 ft 513 kts 50°
2026-05-09 01:21 30.68132 -40.44779 35308 ft 513 kts 50°
2026-05-09 01:21 30.72663 -40.38445 35317 ft 513 kts 50°
2026-05-09 01:22 30.77256 -40.32014 35313 ft 514 kts 50°
2026-05-09 01:22 30.81786 -40.25659 35312 ft 514 kts 50°
2026-05-09 01:23 30.86343 -40.19256 35314 ft 514 kts 50°
2026-05-09 01:23 30.90900 -40.12843 35316 ft 514 kts 50°
2026-05-09 01:24 30.95453 -40.06423 35316 ft 514 kts 50°
2026-05-09 01:24 30.99991 -39.99979 35319 ft 514 kts 52°
2026-05-09 01:25 31.04040 -39.93117 35327 ft 514 kts 57°
2026-05-09 01:25 31.07954 -39.86128 35321 ft 515 kts 57°
2026-05-09 01:26 31.11879 -39.79136 35322 ft 515 kts 56°
2026-05-09 01:26 31.15826 -39.72152 35325 ft 515 kts 56°
2026-05-09 01:27 31.19781 -39.65167 35324 ft 516 kts 56°
2026-05-09 01:27 31.23734 -39.58176 35333 ft 516 kts 56°
2026-05-09 01:28 31.27682 -39.51176 35324 ft 516 kts 56°
2026-05-09 01:28 31.31625 -39.44170 35327 ft 516 kts 56°
2026-05-09 01:29 31.35565 -39.37156 35325 ft 516 kts 56°
2026-05-09 01:29 31.39499 -39.30140 35326 ft 516 kts 56°
2026-05-09 01:30 31.43432 -39.23115 35325 ft 516 kts 56°
2026-05-09 01:30 31.47362 -39.16082 35330 ft 516 kts 56°
2026-05-09 01:31 31.51288 -39.09043 35330 ft 516 kts 56°
2026-05-09 01:31 31.55215 -39.01989 35330 ft 517 kts 56°
2026-05-09 01:32 31.59140 -38.94926 35330 ft 517 kts 56°
2026-05-09 01:32 31.63041 -38.87893 35329 ft 518 kts 56°
2026-05-09 01:33 31.66964 -38.80808 35329 ft 518 kts 56°
2026-05-09 01:33 31.70885 -38.73713 35329 ft 518 kts 56°
2026-05-09 01:34 31.74801 -38.66614 35331 ft 518 kts 56°
2026-05-09 01:34 31.78713 -38.59509 35325 ft 518 kts 56°
2026-05-09 01:35 31.82621 -38.52399 35326 ft 518 kts 56°
2026-05-09 01:35 31.86525 -38.45282 35326 ft 518 kts 56°
2026-05-09 01:36 31.90425 -38.38160 35328 ft 518 kts 56°
2026-05-09 01:36 31.94321 -38.31031 35327 ft 518 kts 56°
2026-05-09 01:37 31.98210 -38.23902 35317 ft 517 kts 56°
2026-05-09 01:37 32.02096 -38.16766 35327 ft 517 kts 56°
2026-05-09 01:38 32.05977 -38.09624 35324 ft 517 kts 56°
2026-05-09 01:38 32.09857 -38.02472 35323 ft 518 kts 56°
2026-05-09 01:39 32.13732 -37.95315 35330 ft 518 kts 56°
2026-05-09 01:39 32.17604 -37.88150 35321 ft 518 kts 56°
2026-05-09 01:40 32.21452 -37.81016 35324 ft 518 kts 56°
2026-05-09 01:40 32.25348 -37.73779 35324 ft 519 kts 56°
2026-05-09 01:41 32.29189 -37.66630 35321 ft 519 kts 56°
2026-05-09 01:41 32.33060 -37.59414 35326 ft 520 kts 56°
2026-05-09 01:42 32.36934 -37.52177 35323 ft 521 kts 56°
2026-05-09 01:42 32.40804 -37.44932 35322 ft 521 kts 56°
2026-05-09 01:43 32.44679 -37.37665 35329 ft 522 kts 56°
2026-05-09 01:43 32.48557 -37.30378 35321 ft 524 kts 56°
2026-05-09 01:44 32.52439 -37.23069 35324 ft 524 kts 56°
2026-05-09 01:44 32.56321 -37.15746 35321 ft 525 kts 56°
2026-05-09 01:45 32.60199 -37.08416 35319 ft 525 kts 56°
2026-05-09 01:45 32.64074 -37.01077 35318 ft 525 kts 56°
2026-05-09 01:46 32.67943 -36.93735 35315 ft 525 kts 56°
2026-05-09 01:46 32.71811 -36.86382 35320 ft 525 kts 56°
2026-05-09 01:47 32.75671 -36.79028 35318 ft 524 kts 56°
2026-05-09 01:47 32.79500 -36.71720 35314 ft 524 kts 56°
2026-05-09 01:48 32.83350 -36.64356 35328 ft 524 kts 56°
2026-05-09 01:48 32.87195 -36.56988 35326 ft 524 kts 56°
2026-05-09 01:49 32.91035 -36.49615 35314 ft 524 kts 56°
2026-05-09 01:49 32.94870 -36.42236 35314 ft 524 kts 56°
2026-05-09 01:50 32.98703 -36.34847 35328 ft 524 kts 56°
2026-05-09 01:50 33.01884 -36.28703 35310 ft 524 kts 56°
2026-05-09 01:51 33.05709 -36.21301 35312 ft 525 kts 56°
2026-05-09 01:51 33.09531 -36.13891 35321 ft 525 kts 56°
2026-05-09 01:52 33.13350 -36.06472 35318 ft 524 kts 56°
2026-05-09 01:52 33.17160 -35.99053 35330 ft 524 kts 56°
2026-05-09 01:53 33.20966 -35.91630 35318 ft 524 kts 56°
2026-05-09 01:53 33.24769 -35.84196 35318 ft 524 kts 56°
2026-05-09 01:54 33.28566 -35.76760 35319 ft 524 kts 56°
2026-05-09 01:54 33.32362 -35.69310 35324 ft 525 kts 56°
2026-05-09 01:55 33.36155 -35.61851 35314 ft 525 kts 56°
2026-05-09 01:55 33.39946 -35.54379 35315 ft 525 kts 56°
2026-05-09 01:56 33.43730 -35.46906 35319 ft 525 kts 56°
2026-05-09 01:56 33.47514 -35.39419 35316 ft 525 kts 56°
2026-05-09 01:57 33.51293 -35.31926 35317 ft 526 kts 56°
2026-05-09 01:57 33.55070 -35.24421 35323 ft 526 kts 56°
2026-05-09 01:58 33.58841 -35.16912 35314 ft 526 kts 56°
2026-05-09 01:58 33.62611 -35.09391 35311 ft 526 kts 56°
2026-05-09 01:59 33.66350 -35.01915 35306 ft 526 kts 56°
2026-05-09 01:59 33.70109 -34.94382 35312 ft 526 kts 56°
2026-05-09 02:00 33.73862 -34.86846 35306 ft 525 kts 56°
2026-05-09 02:00 33.77605 -34.79316 35310 ft 525 kts 56°
2026-05-09 02:01 33.81341 -34.71783 35320 ft 524 kts 56°
2026-05-09 02:01 33.85073 -34.64244 35305 ft 524 kts 56°
2026-05-09 02:02 33.88796 -34.56705 35309 ft 524 kts 56°
2026-05-09 02:02 33.92515 -34.49160 35302 ft 524 kts 56°
2026-05-09 02:03 33.96230 -34.41606 35315 ft 524 kts 56°
2026-05-09 02:03 33.99942 -34.34043 35305 ft 524 kts 56°
2026-05-09 02:04 34.03651 -34.26471 35301 ft 524 kts 56°
2026-05-09 02:04 34.07351 -34.18898 35314 ft 524 kts 56°
2026-05-09 02:05 34.11051 -34.11311 35302 ft 524 kts 56°
2026-05-09 02:05 34.14743 -34.03724 35293 ft 524 kts 56°
2026-05-09 02:06 34.18427 -33.96138 35291 ft 524 kts 56°
2026-05-09 02:07 34.23946 -33.84740 35292 ft 523 kts 56°
2026-05-09 02:07 34.27617 -33.77141 35295 ft 523 kts 56°
2026-05-09 02:08 34.31258 -33.69585 35310 ft 523 kts 56°
2026-05-09 02:08 34.34919 -33.61973 35288 ft 523 kts 56°
2026-05-09 02:09 34.38572 -33.54362 35289 ft 523 kts 56°
2026-05-09 02:09 34.42219 -33.46744 35289 ft 523 kts 56°
2026-05-09 02:10 34.45860 -33.39123 35299 ft 523 kts 56°
2026-05-09 02:10 34.49500 -33.31490 35288 ft 523 kts 56°
2026-05-09 02:11 34.53136 -33.23847 35285 ft 523 kts 56°
2026-05-09 02:11 34.56764 -33.16204 35282 ft 523 kts 56°
2026-05-09 02:12 34.60392 -33.08544 35281 ft 523 kts 56°
2026-05-09 02:12 34.64015 -33.00879 35277 ft 524 kts 56°
2026-05-09 02:13 34.67635 -32.93202 35271 ft 524 kts 56°
2026-05-09 02:13 34.71250 -32.85519 35285 ft 524 kts 56°
2026-05-09 02:14 34.74863 -32.77824 35277 ft 524 kts 56°
2026-05-09 02:14 34.78474 -32.70116 35275 ft 525 kts 56°
2026-05-09 02:15 34.82082 -32.62397 35272 ft 525 kts 56°
2026-05-09 02:15 34.85685 -32.54671 35276 ft 525 kts 56°
2026-05-09 02:16 34.89285 -32.46935 35268 ft 525 kts 56°
2026-05-09 02:16 34.92879 -32.39193 35263 ft 525 kts 56°
2026-05-09 02:17 34.96467 -32.31445 35276 ft 524 kts 55°
2026-05-09 02:17 35.00047 -32.23700 35262 ft 524 kts 56°
2026-05-09 02:18 35.03618 -32.15956 35258 ft 523 kts 56°
2026-05-09 02:18 35.07178 -32.08220 35261 ft 522 kts 56°
2026-05-09 02:19 35.10732 -32.00482 35257 ft 523 kts 55°
2026-05-09 02:19 35.14283 -31.92730 35259 ft 523 kts 55°
2026-05-09 02:20 35.17826 -31.84975 35261 ft 523 kts 56°
2026-05-09 02:20 35.21346 -31.77257 35274 ft 523 kts 56°
2026-05-09 02:21 35.24910 -31.69425 35263 ft 524 kts 56°
2026-05-09 02:21 35.28449 -31.61628 35250 ft 524 kts 56°
2026-05-09 02:22 35.31985 -31.53820 35250 ft 524 kts 56°
2026-05-09 02:22 35.35492 -31.46059 35255 ft 525 kts 56°
2026-05-09 02:23 35.39020 -31.38232 35249 ft 525 kts 56°
2026-05-09 02:23 35.42543 -31.30398 35247 ft 525 kts 56°
2026-05-09 02:24 35.46060 -31.22561 35242 ft 525 kts 56°
2026-05-09 02:24 35.49573 -31.14714 35243 ft 524 kts 56°
2026-05-09 02:25 35.53078 -31.06867 35240 ft 524 kts 56°
2026-05-09 02:25 35.56571 -30.99028 35236 ft 523 kts 56°
2026-05-09 02:26 35.60057 -30.91186 35244 ft 522 kts 56°
2026-05-09 02:26 35.63532 -30.83350 35235 ft 522 kts 56°
2026-05-09 02:27 35.66997 -30.75521 35229 ft 521 kts 56°
2026-05-09 02:27 35.70454 -30.67690 35254 ft 521 kts 56°
2026-05-09 02:28 35.73907 -30.59851 35227 ft 521 kts 56°
2026-05-09 02:28 35.77355 -30.52005 35226 ft 521 kts 56°
2026-05-09 02:29 35.80796 -30.44155 35226 ft 521 kts 56°
2026-05-09 02:29 35.84233 -30.36296 35237 ft 522 kts 56°
2026-05-09 02:30 35.87650 -30.28466 35226 ft 522 kts 56°
2026-05-09 02:30 35.91085 -30.20574 35224 ft 522 kts 56°
2026-05-09 02:31 35.94512 -30.12681 35221 ft 522 kts 56°
2026-05-09 02:31 35.97937 -30.04777 35218 ft 522 kts 56°
2026-05-09 02:32 36.01487 -29.96983 35217 ft 518 kts 51°
2026-05-09 02:32 36.05385 -29.89518 35210 ft 517 kts 50°
2026-05-09 02:33 36.09312 -29.82083 35246 ft 517 kts 50°
2026-05-09 02:33 36.13216 -29.74618 35207 ft 517 kts 51°
2026-05-09 02:34 36.17094 -29.67135 35203 ft 516 kts 51°
2026-05-09 02:34 36.20958 -29.59649 35195 ft 516 kts 51°
2026-05-09 02:35 36.24813 -29.52168 35222 ft 515 kts 51°
2026-05-09 02:35 36.28022 -29.45934 35197 ft 516 kts 51°
2026-05-09 02:36 36.31874 -29.38434 35193 ft 516 kts 51°
2026-05-09 02:36 36.35726 -29.30918 35188 ft 516 kts 51°
2026-05-09 02:37 36.39574 -29.23391 35210 ft 517 kts 51°
2026-05-09 02:37 36.43426 -29.15841 35191 ft 518 kts 51°
2026-05-09 02:38 36.47276 -29.08278 35182 ft 518 kts 51°
2026-05-09 02:38 36.51122 -29.00705 35180 ft 518 kts 51°
2026-05-09 02:39 36.54964 -28.93123 35214 ft 518 kts 52°
2026-05-09 02:39 36.58787 -28.85559 35174 ft 515 kts 52°
2026-05-09 02:40 36.62585 -28.78027 35165 ft 512 kts 52°
2026-05-09 02:40 36.66339 -28.70569 35167 ft 510 kts 52°
2026-05-09 02:41 36.70101 -28.63082 35172 ft 510 kts 52°
2026-05-09 02:41 36.73853 -28.55596 35184 ft 509 kts 52°
2026-05-09 02:42 36.77602 -28.48100 35166 ft 509 kts 52°
2026-05-09 02:42 36.81349 -28.40591 35162 ft 510 kts 52°
2026-05-09 02:43 36.85097 -28.33062 35156 ft 511 kts 53°
2026-05-09 02:43 36.88844 -28.25518 35163 ft 512 kts 53°
2026-05-09 02:44 36.92594 -28.17951 35159 ft 512 kts 53°
2026-05-09 02:44 36.96340 -28.10372 35159 ft 513 kts 53°
2026-05-09 02:44 36.98220 -28.06565 35328 ft 515 kts 52°
2026-05-09 02:45 37.00100 -28.02752 35620 ft 515 kts 52°
2026-05-09 02:45 37.01974 -27.98944 35964 ft 513 kts 52°
2026-05-09 02:45 37.03840 -27.95149 36296 ft 511 kts 52°
2026-05-09 02:45 37.05698 -27.91365 36602 ft 510 kts 52°
2026-05-09 02:46 37.07557 -27.87576 36866 ft 511 kts 52°
2026-05-09 02:46 37.09393 -27.83832 37067 ft 511 kts 52°
2026-05-09 02:46 37.11258 -27.80027 37117 ft 514 kts 52°
2026-05-09 02:47 37.14997 -27.72382 37152 ft 514 kts 52°
2026-05-09 02:47 37.18713 -27.64756 37146 ft 512 kts 52°
2026-05-09 02:48 37.22416 -27.57143 37144 ft 510 kts 52°
2026-05-09 02:48 37.26106 -27.49543 37143 ft 509 kts 52°
2026-05-09 02:49 37.29793 -27.41933 37128 ft 511 kts 52°
2026-05-09 02:49 37.33485 -27.34297 37126 ft 512 kts 52°
2026-05-09 02:50 37.37180 -27.26632 37148 ft 513 kts 52°
2026-05-09 02:50 37.40882 -27.18937 37138 ft 515 kts 52°
2026-05-09 02:51 37.44590 -27.11209 37130 ft 517 kts 52°
2026-05-09 02:51 37.48303 -27.03453 37129 ft 518 kts 52°
2026-05-09 02:52 37.52017 -26.95676 37125 ft 518 kts 52°
2026-05-09 02:52 37.55703 -26.87939 37121 ft 518 kts 52°
2026-05-09 02:53 37.59412 -26.80136 37114 ft 519 kts 52°
2026-05-09 02:53 37.63117 -26.72321 37112 ft 519 kts 52°
2026-05-09 02:54 37.66814 -26.64507 37111 ft 518 kts 52°
2026-05-09 02:54 37.70502 -26.56693 37105 ft 518 kts 52°
2026-05-09 02:55 37.74185 -26.48871 37106 ft 518 kts 52°
2026-05-09 02:55 37.77861 -26.41045 37100 ft 518 kts 52°
2026-05-09 02:56 37.81533 -26.33209 37097 ft 518 kts 52°
2026-05-09 02:56 37.85198 -26.25368 37148 ft 518 kts 52°
2026-05-09 02:57 37.88863 -26.17508 37099 ft 519 kts 52°
2026-05-09 02:57 37.92522 -26.09642 37088 ft 518 kts 52°
2026-05-09 02:58 37.96171 -26.01778 37081 ft 517 kts 52°
2026-05-09 02:58 37.99810 -25.93915 37110 ft 517 kts 52°
2026-05-09 02:59 38.03443 -25.86050 37078 ft 517 kts 52°
2026-05-09 02:59 38.07066 -25.78185 37075 ft 516 kts 52°
2026-05-09 03:00 38.10659 -25.70369 37071 ft 516 kts 52°
2026-05-09 03:00 38.14269 -25.62492 37107 ft 516 kts 53°
2026-05-09 03:01 38.17880 -25.54599 37071 ft 516 kts 53°
2026-05-09 03:01 38.21484 -25.46700 37059 ft 516 kts 53°
2026-05-09 03:02 38.25082 -25.38793 37046 ft 516 kts 53°
2026-05-09 03:02 38.28674 -25.30880 37048 ft 516 kts 53°
2026-05-09 03:03 38.32261 -25.22958 37038 ft 517 kts 53°
2026-05-09 03:03 38.35842 -25.15030 37042 ft 516 kts 53°
2026-05-09 03:04 38.39416 -25.07099 37042 ft 516 kts 53°
2026-05-09 03:04 38.42980 -24.99170 37058 ft 516 kts 53°
2026-05-09 03:05 38.46542 -24.91226 37044 ft 515 kts 53°
2026-05-09 03:05 38.50095 -24.83281 37032 ft 515 kts 53°
2026-05-09 03:06 38.53641 -24.75332 37032 ft 515 kts 53°
2026-05-09 03:06 38.57179 -24.67382 37052 ft 515 kts 53°
2026-05-09 03:07 38.60693 -24.59468 37024 ft 515 kts 53°
2026-05-09 03:07 38.64223 -24.51496 37022 ft 515 kts 53°
2026-05-09 03:08 38.67745 -24.43522 37020 ft 515 kts 54°
2026-05-09 03:08 38.71260 -24.35542 37035 ft 515 kts 54°
2026-05-09 03:09 38.74775 -24.27546 37012 ft 514 kts 54°
2026-05-09 03:09 38.78272 -24.19568 36997 ft 513 kts 54°
2026-05-09 03:10 38.81753 -24.11605 36996 ft 511 kts 54°
2026-05-09 03:10 38.85223 -24.03648 37010 ft 511 kts 55°
2026-05-09 03:11 38.88683 -23.95696 36990 ft 510 kts 55°
2026-05-09 03:11 38.92134 -23.87743 36988 ft 509 kts 55°
2026-05-09 03:12 38.95577 -23.79790 36984 ft 509 kts 55°
2026-05-09 03:12 38.99017 -23.71823 36993 ft 510 kts 55°
2026-05-09 03:13 39.04171 -23.59847 36967 ft 510 kts 55°
2026-05-09 03:13 39.07600 -23.51852 36967 ft 510 kts 56°
2026-05-09 03:14 39.11000 -23.43906 36959 ft 510 kts 56°
2026-05-09 03:14 39.14418 -23.35901 36945 ft 510 kts 56°
2026-05-09 03:15 39.17832 -23.27880 36958 ft 510 kts 56°
2026-05-09 03:15 39.21232 -23.19871 36942 ft 509 kts 56°
2026-05-09 03:16 39.24629 -23.11848 36944 ft 509 kts 56°
2026-05-09 03:16 39.28015 -23.03834 36932 ft 509 kts 57°
2026-05-09 03:17 39.31394 -22.95813 36929 ft 509 kts 57°
2026-05-09 03:17 39.34769 -22.87784 36941 ft 509 kts 57°
2026-05-09 03:18 39.38141 -22.79739 36923 ft 509 kts 57°
2026-05-09 03:18 39.41514 -22.71670 36920 ft 511 kts 57°
2026-05-09 03:19 39.44886 -22.63584 36913 ft 511 kts 57°
2026-05-09 03:19 39.48236 -22.55527 36908 ft 512 kts 57°
2026-05-09 03:20 39.51607 -22.47398 36901 ft 513 kts 57°
2026-05-09 03:20 39.54979 -22.39248 36896 ft 513 kts 57°
2026-05-09 03:21 39.58344 -22.31089 36896 ft 514 kts 57°
2026-05-09 03:21 39.61708 -22.22913 36891 ft 514 kts 57°
2026-05-09 03:22 39.65061 -22.14741 36874 ft 513 kts 57°
2026-05-09 03:22 39.68405 -22.06569 36873 ft 512 kts 57°
2026-05-09 03:23 39.71742 -21.98394 36871 ft 512 kts 57°
2026-05-09 03:23 39.75064 -21.90233 36868 ft 511 kts 57°
2026-05-09 03:24 39.78382 -21.82060 36866 ft 511 kts 57°
2026-05-09 03:24 39.81693 -21.73883 36854 ft 511 kts 58°
2026-05-09 03:25 39.84999 -21.65695 36863 ft 511 kts 58°
2026-05-09 03:25 39.88300 -21.57499 36845 ft 511 kts 58°
2026-05-09 03:26 39.91595 -21.49294 36832 ft 511 kts 58°
2026-05-09 03:26 39.94330 -21.42468 36843 ft 512 kts 58°
2026-05-09 03:27 39.97618 -21.34240 36847 ft 512 kts 58°
2026-05-09 03:27 40.00900 -21.26004 36824 ft 511 kts 58°
2026-05-09 03:28 40.04169 -21.17776 36822 ft 510 kts 58°
2026-05-09 03:28 40.07429 -21.09551 36814 ft 510 kts 59°
2026-05-09 03:29 40.10679 -21.01331 36812 ft 509 kts 59°
2026-05-09 03:29 40.13915 -20.93119 36807 ft 508 kts 59°
2026-05-09 03:30 40.17140 -20.84915 36799 ft 507 kts 59°
2026-05-09 03:30 40.20336 -20.76763 36809 ft 507 kts 59°
2026-05-09 03:31 40.23546 -20.68553 36790 ft 507 kts 59°
2026-05-09 03:31 40.26748 -20.60341 36784 ft 506 kts 59°
2026-05-09 03:32 40.29942 -20.52124 36787 ft 506 kts 60°
2026-05-09 03:32 40.33133 -20.43895 36789 ft 506 kts 60°
2026-05-09 03:33 40.36320 -20.35652 36778 ft 507 kts 60°
2026-05-09 03:33 40.39494 -20.27420 36776 ft 506 kts 60°
2026-05-09 03:34 40.42666 -20.19169 36756 ft 506 kts 60°
2026-05-09 03:34 40.45826 -20.10925 36773 ft 505 kts 61°
2026-05-09 03:35 40.48962 -20.02726 36751 ft 505 kts 60°
2026-05-09 03:35 40.51936 -19.94361 36757 ft 506 kts 64°
2026-05-09 03:36 40.54701 -19.85852 36750 ft 506 kts 65°
2026-05-09 03:36 40.57444 -19.77326 36747 ft 506 kts 65°
2026-05-09 03:37 40.60205 -19.68796 36743 ft 507 kts 64°
2026-05-09 03:37 40.62973 -19.60266 36735 ft 507 kts 64°
2026-05-09 03:38 40.65743 -19.51718 36729 ft 507 kts 64°
2026-05-09 03:38 40.68504 -19.43165 36737 ft 508 kts 65°
2026-05-09 03:39 40.71260 -19.34600 36721 ft 508 kts 65°
2026-05-09 03:39 40.74007 -19.26034 36720 ft 507 kts 65°
2026-05-09 03:40 40.76746 -19.17463 36714 ft 507 kts 65°
2026-05-09 03:40 40.79478 -19.08890 36715 ft 507 kts 65°
2026-05-09 03:41 40.82203 -19.00312 36699 ft 507 kts 65°
2026-05-09 03:41 40.84921 -18.91725 36690 ft 507 kts 65°
2026-05-09 03:42 40.87632 -18.83139 36681 ft 506 kts 65°
2026-05-09 03:42 40.90335 -18.74551 36697 ft 506 kts 66°
2026-05-09 03:43 40.93029 -18.65959 36694 ft 506 kts 66°
2026-05-09 03:43 40.95723 -18.57351 36694 ft 506 kts 65°
2026-05-09 03:44 40.98411 -18.48728 36687 ft 508 kts 65°
2026-05-09 03:44 41.01096 -18.40084 36660 ft 508 kts 65°
2026-05-09 03:45 41.03777 -18.31423 36669 ft 508 kts 66°
2026-05-09 03:45 41.06445 -18.22783 36651 ft 507 kts 66°
2026-05-09 03:46 41.09105 -18.14134 36649 ft 506 kts 66°
2026-05-09 03:46 41.11740 -18.05540 36673 ft 506 kts 66°
2026-05-09 03:47 41.14383 -17.96897 36640 ft 506 kts 66°
2026-05-09 03:47 41.18864 -17.82169 36626 ft 506 kts 66°
2026-05-09 03:48 41.24116 -17.64812 36605 ft 506 kts 66°
2026-05-09 03:48 41.29315 -17.47511 36593 ft 500 kts 67°
2026-05-09 03:49 41.34411 -17.30435 36582 ft 494 kts 67°
2026-05-09 03:49 41.39441 -17.13481 36578 ft 492 kts 68°
2026-05-09 03:50 41.44480 -16.96390 36590 ft 499 kts 68°
2026-05-09 03:50 41.49562 -16.79029 36586 ft 504 kts 68°
2026-05-09 03:51 41.54627 -16.61605 36568 ft 501 kts 68°
2026-05-09 03:51 41.59598 -16.44397 36567 ft 492 kts 68°
2026-05-09 03:52 41.64471 -16.27412 36585 ft 489 kts 69°
2026-05-09 03:52 41.69349 -16.10298 36582 ft 496 kts 69°
2026-05-09 03:53 41.74272 -15.92906 36585 ft 502 kts 69°
2026-05-09 03:53 41.79169 -15.75485 36566 ft 496 kts 69°
2026-05-09 03:54 41.83953 -15.58353 36583 ft 487 kts 70°
2026-05-09 03:54 41.88661 -15.41376 36578 ft 484 kts 70°
2026-05-09 03:55 41.93357 -15.24323 36595 ft 491 kts 70°
2026-05-09 03:55 41.97615 -15.08761 36581 ft 498 kts 70°
2026-05-09 03:56 42.02223 -14.91189 36595 ft 496 kts 72°
2026-05-09 03:56 42.06317 -14.73776 36580 ft 487 kts 72°
2026-05-09 03:57 42.10408 -14.56564 36591 ft 480 kts 73°
2026-05-09 03:57 42.14508 -14.39233 36605 ft 487 kts 73°
2026-05-09 03:58 42.18604 -14.21779 36609 ft 495 kts 73°
2026-05-09 03:58 42.20734 -14.12648 36596 ft 487 kts 74°
2026-05-09 03:59 42.22746 -14.03991 36598 ft 482 kts 73°
2026-05-09 03:59 42.24742 -13.95364 36607 ft 481 kts 73°
2026-05-09 04:00 42.26732 -13.86734 36616 ft 482 kts 74°
2026-05-09 04:00 42.28719 -13.78077 36619 ft 484 kts 74°
2026-05-09 04:01 42.30708 -13.69381 36620 ft 486 kts 74°
2026-05-09 04:01 42.32698 -13.60641 36622 ft 488 kts 73°
2026-05-09 04:02 42.34690 -13.51865 36627 ft 489 kts 74°
2026-05-09 04:02 42.36678 -13.43072 36619 ft 489 kts 74°
2026-05-09 04:03 42.38661 -13.34263 36619 ft 490 kts 75°
2026-05-09 04:03 42.40637 -13.25447 36629 ft 490 kts 74°
2026-05-09 04:04 42.42605 -13.16634 36624 ft 489 kts 75°
2026-05-09 04:04 42.44566 -13.07817 36626 ft 489 kts 75°
2026-05-09 04:05 42.46509 -12.99038 36629 ft 490 kts 75°
2026-05-09 04:05 42.48460 -12.90203 36629 ft 490 kts 75°
2026-05-09 04:06 42.50405 -12.81349 36646 ft 490 kts 75°
2026-05-09 04:06 42.52345 -12.72487 36624 ft 490 kts 76°
2026-05-09 04:07 42.54273 -12.63629 36639 ft 489 kts 77°
2026-05-09 04:07 42.56191 -12.54780 36627 ft 489 kts 77°
2026-05-09 04:08 42.58103 -12.45938 36650 ft 488 kts 77°
2026-05-09 04:08 42.60006 -12.37104 36655 ft 487 kts 75°
2026-05-09 04:09 42.61895 -12.28280 36658 ft 487 kts 76°
2026-05-09 04:09 42.63776 -12.19458 36666 ft 486 kts 77°
2026-05-09 04:10 42.65651 -12.10645 36665 ft 486 kts 76°
2026-05-09 04:10 42.67537 -12.01826 36657 ft 486 kts 75°
2026-05-09 04:11 42.70165 -11.93332 36669 ft 490 kts 66°
2026-05-09 04:11 42.73194 -11.85028 36672 ft 490 kts 66°
2026-05-09 04:12 42.76222 -11.76710 36677 ft 491 kts 66°
2026-05-09 04:12 42.79214 -11.68358 36682 ft 491 kts 66°
2026-05-09 04:13 42.82186 -11.59984 36684 ft 491 kts 67°
2026-05-09 04:13 42.85152 -11.51601 36684 ft 491 kts 67°
2026-05-09 04:14 42.88108 -11.43217 36690 ft 490 kts 67°
2026-05-09 04:14 42.90545 -11.36284 36687 ft 490 kts 66°
2026-05-09 04:15 42.93465 -11.27952 36681 ft 489 kts 67°
2026-05-09 04:15 42.96400 -11.19563 36696 ft 489 kts 67°
2026-05-09 04:16 42.99805 -11.09796 36708 ft 489 kts 67°
2026-05-09 04:16 43.02253 -11.02752 36707 ft 489 kts 68°
2026-05-09 04:17 43.05155 -10.94377 36710 ft 490 kts 67°
2026-05-09 04:17 43.08072 -10.85934 36718 ft 490 kts 67°
2026-05-09 04:18 43.10983 -10.77482 36721 ft 490 kts 67°
2026-05-09 04:18 43.13868 -10.69077 36723 ft 491 kts 67°
2026-05-09 04:19 43.16769 -10.60604 36728 ft 491 kts 68°
2026-05-09 04:19 43.19664 -10.52118 36721 ft 491 kts 68°
2026-05-09 04:20 43.22552 -10.43629 36733 ft 491 kts 68°
2026-05-09 04:20 43.25434 -10.35129 36734 ft 492 kts 68°
2026-05-09 04:21 43.28295 -10.26666 36740 ft 492 kts 68°
2026-05-09 04:22 43.32605 -10.13867 36738 ft 492 kts 68°
2026-05-09 04:22 43.35475 -10.05312 36751 ft 493 kts 68°
2026-05-09 04:23 43.38342 -9.96734 36753 ft 494 kts 68°
2026-05-09 04:23 43.41186 -9.88202 36757 ft 494 kts 68°
2026-05-09 04:24 43.44046 -9.79594 36744 ft 494 kts 68°
2026-05-09 04:24 43.46898 -9.70980 36757 ft 494 kts 68°
2026-05-09 04:25 43.49728 -9.62407 36763 ft 494 kts 68°
2026-05-09 04:25 43.52566 -9.53783 36766 ft 494 kts 68°
2026-05-09 04:26 43.55401 -9.45138 36746 ft 495 kts 68°
2026-05-09 04:26 43.58234 -9.36471 36761 ft 495 kts 68°
2026-05-09 04:27 43.61063 -9.27790 36770 ft 495 kts 68°
2026-05-09 04:27 43.63870 -9.19148 36774 ft 496 kts 68°
2026-05-09 04:28 43.66690 -9.10435 36770 ft 496 kts 68°
2026-05-09 04:28 43.69504 -9.01716 36779 ft 497 kts 69°
2026-05-09 04:29 43.72315 -8.92975 36769 ft 497 kts 69°
2026-05-09 04:29 43.75102 -8.84278 36777 ft 497 kts 69°
2026-05-09 04:30 43.77907 -8.75500 36774 ft 498 kts 69°
2026-05-09 04:30 43.80700 -8.66728 36766 ft 497 kts 69°
2026-05-09 04:31 43.83487 -8.57947 36780 ft 498 kts 69°
2026-05-09 04:31 43.86255 -8.49193 36790 ft 498 kts 69°
2026-05-09 04:32 43.89034 -8.40378 36790 ft 499 kts 69°
2026-05-09 04:32 43.91806 -8.31556 36779 ft 499 kts 69°
2026-05-09 04:33 43.94572 -8.22722 36793 ft 499 kts 69°
2026-05-09 04:33 43.97332 -8.13876 36807 ft 499 kts 69°
2026-05-09 04:34 44.00085 -8.05024 36802 ft 499 kts 69°
2026-05-09 04:34 44.02815 -7.96216 36811 ft 499 kts 69°
2026-05-09 04:35 44.05556 -7.87342 36818 ft 499 kts 69°
2026-05-09 04:35 44.08290 -7.78459 36815 ft 499 kts 69°
2026-05-09 04:36 44.11020 -7.69561 36816 ft 499 kts 69°
2026-05-09 04:36 44.13736 -7.60675 36819 ft 499 kts 69°
2026-05-09 04:37 44.16454 -7.51754 36822 ft 499 kts 69°
2026-05-09 04:37 44.19135 -7.42922 36823 ft 498 kts 69°
2026-05-09 04:38 44.21825 -7.34032 36823 ft 497 kts 69°
2026-05-09 04:38 44.24506 -7.25140 36828 ft 497 kts 69°
2026-05-09 04:39 44.27186 -7.16217 36817 ft 497 kts 70°
2026-05-09 04:39 44.29852 -7.07312 36835 ft 497 kts 70°
2026-05-09 04:40 44.32511 -6.98398 36841 ft 498 kts 70°
2026-05-09 04:40 44.35153 -6.89511 36837 ft 499 kts 70°
2026-05-09 04:41 44.37812 -6.80537 36826 ft 500 kts 70°
2026-05-09 04:41 44.40470 -6.71531 36838 ft 500 kts 70°
2026-05-09 04:42 44.43124 -6.62508 36851 ft 501 kts 70°
2026-05-09 04:42 44.45772 -6.53474 36843 ft 501 kts 70°
2026-05-09 04:43 44.48392 -6.44504 36827 ft 500 kts 70°
2026-05-09 04:43 44.51017 -6.35482 36845 ft 500 kts 70°
2026-05-09 04:44 44.53638 -6.26440 36847 ft 500 kts 70°
2026-05-09 04:44 44.56249 -6.17403 36843 ft 500 kts 70°
2026-05-09 04:45 44.58848 -6.08371 36829 ft 500 kts 70°
2026-05-09 04:45 44.61428 -5.99376 36859 ft 500 kts 70°
2026-05-09 04:46 44.64032 -5.90313 36854 ft 501 kts 69°
2026-05-09 04:46 44.67495 -5.81795 36860 ft 505 kts 56°
2026-05-09 04:47 44.72054 -5.74262 36864 ft 507 kts 48°
2026-05-09 04:47 44.76956 -5.67099 36845 ft 508 kts 47°
2026-05-09 04:48 44.81820 -5.59965 36856 ft 508 kts 48°
2026-05-09 04:48 44.86688 -5.52717 36864 ft 509 kts 48°
2026-05-09 04:49 44.91539 -5.45433 36861 ft 509 kts 48°
2026-05-09 04:49 44.96388 -5.38127 36859 ft 508 kts 48°
2026-05-09 04:50 45.01214 -5.30841 36853 ft 508 kts 48°
2026-05-09 04:50 45.06038 -5.23544 36865 ft 507 kts 48°
2026-05-09 04:51 45.10824 -5.16285 36873 ft 507 kts 48°
2026-05-09 04:51 45.15635 -5.08967 36863 ft 507 kts 49°
2026-05-09 04:52 45.20437 -5.01646 36866 ft 506 kts 49°
2026-05-09 04:52 45.25235 -4.94309 36870 ft 507 kts 49°
2026-05-09 04:53 45.30025 -4.86965 36882 ft 507 kts 49°
2026-05-09 04:53 45.34815 -4.79603 36870 ft 507 kts 49°
2026-05-09 04:54 45.39559 -4.72291 36871 ft 507 kts 49°
2026-05-09 04:54 45.44344 -4.64896 36852 ft 507 kts 49°
2026-05-09 04:55 45.49123 -4.57491 36878 ft 506 kts 49°